When you browse on this site, cookies collect data to enhance your experience and personalize the content and advertising you see.
Visit our Privacy Policy to learn more. By continuing to use the site, you agree to this use of cookies and data.
  • In Spain
  • List of Countries
  • For 7 days
  • Water Temperature
  • Weather Map
  • Weather Widgets
  • user-avatar
    Login

    Hourly Weather Arkalyk

    Today, 4 June, Thursday

    Time Temperature Precipitation Wind Pressure Humidity
    00:00 +16°C° 0 mm 6 mps 729 mmHg 63%
    01:00 +16°C° 0 mm 6 mps 729 mmHg 65%
    02:00 +15°C° 0 mm 6 mps 729 mmHg 66%
    03:00 +14°C° 0 mm 6 mps 729 mmHg 67%
    04:00 +14°C° 0 mm 6 mps 729 mmHg 68%
    05:00 +15°C° 0 mm 6 mps 730 mmHg 64%
    06:00 +15°C° 0 mm 7 mps 730 mmHg 60%
    07:00 +16°C° 0 mm 7 mps 730 mmHg 57%
    08:00 +17°C° 0 mm 7 mps 730 mmHg 53%
    09:00 +18°C° 0 mm 7 mps 730 mmHg 49%
    10:00 +20°C° 0 mm 7 mps 731 mmHg 44%
    11:00 +21°C° 0 mm 7 mps 730 mmHg 40%
    12:00 +21°C° 0 mm 7 mps 730 mmHg 36%
    13:00 +22°C° 0 mm 7 mps 730 mmHg 32%
    14:00 +22°C° 0 mm 7 mps 730 mmHg 31%
    15:00 +22°C° 0 mm 7 mps 730 mmHg 30%
    16:00 +22°C° 0 mm 7 mps 731 mmHg 30%
    17:00 +21°C° 0 mm 6 mps 731 mmHg 33%
    18:00 +20°C° 0 mm 6 mps 731 mmHg 37%
    19:00 +19°C° 0 mm 6 mps 731 mmHg 41%
    20:00 +16°C° 0 mm 7 mps 732 mmHg 45%
    21:00 +15°C° 0 mm 8 mps 732 mmHg 49%
    22:00 +13°C° 0 mm 8 mps 733 mmHg 53%
    23:00 +12°C° 0 mm 8 mps 733 mmHg 53%

    Tomorrow, 5 June, Friday

    Time Temperature Precipitation Wind Pressure Humidity
    00:00 +11°C° 0 mm 8 mps 733 mmHg 53%
    01:00 +10°C° 0 mm 7 mps 734 mmHg 52%
    02:00 +10°C° 0 mm 7 mps 734 mmHg 52%
    03:00 +9°C° 0 mm 7 mps 735 mmHg 52%
    04:00 +9°C° 0 mm 6 mps 735 mmHg 52%
    05:00 +9°C° 0 mm 7 mps 735 mmHg 48%
    06:00 +10°C° 0 mm 7 mps 736 mmHg 45%
    07:00 +11°C° 0 mm 8 mps 736 mmHg 42%
    08:00 +14°C° 0 mm 7 mps 736 mmHg 39%
    09:00 +15°C° 0 mm 7 mps 736 mmHg 36%
    10:00 +17°C° 0 mm 7 mps 737 mmHg 34%
    11:00 +18°C° 0 mm 7 mps 736 mmHg 31%
    12:00 +18°C° 0 mm 7 mps 736 mmHg 29%
    13:00 +20°C° 0 mm 6 mps 736 mmHg 26%
    14:00 +21°C° 0 mm 6 mps 736 mmHg 26%
    15:00 +21°C° 0 mm 6 mps 736 mmHg 26%
    16:00 +21°C° 0 mm 6 mps 736 mmHg 26%
    17:00 +20°C° 0 mm 5 mps 736 mmHg 29%
    18:00 +19°C° 0 mm 5 mps 736 mmHg 32%
    19:00 +18°C° 0 mm 4 mps 736 mmHg 34%
    20:00 +16°C° 0 mm 5 mps 736 mmHg 37%
    21:00 +15°C° 0 mm 5 mps 737 mmHg 40%
    22:00 +14°C° 0 mm 5 mps 737 mmHg 43%
    23:00 +14°C° 0 mm 5 mps 737 mmHg 46%

    Day after tomorrow, 6 June, Saturday

    Time Temperature Precipitation Wind Pressure Humidity
    00:00 +13°C° 0 mm 5 mps 737 mmHg 48%
    01:00 +12°C° 0 mm 5 mps 737 mmHg 51%
    02:00 +12°C° 0 mm 4 mps 737 mmHg 54%
    03:00 +11°C° 0 mm 4 mps 738 mmHg 56%
    04:00 +11°C° 0 mm 4 mps 738 mmHg 58%
    05:00 +12°C° 0 mm 4 mps 738 mmHg 54%
    06:00 +14°C° 0 mm 5 mps 738 mmHg 50%
    07:00 +15°C° 0 mm 5 mps 738 mmHg 45%
    08:00 +17°C° 0 mm 5 mps 738 mmHg 42%
    09:00 +19°C° 0 mm 6 mps 739 mmHg 38%
    10:00 +20°C° 0 mm 6 mps 739 mmHg 35%
    11:00 +21°C° 0 mm 6 mps 738 mmHg 33%
    12:00 +22°C° 0 mm 6 mps 738 mmHg 31%
    13:00 +23°C° 0 mm 6 mps 738 mmHg 30%
    14:00 +23°C° 0 mm 6 mps 738 mmHg 29%
    15:00 +23°C° 0 mm 5 mps 738 mmHg 29%
    16:00 +23°C° 0 mm 5 mps 738 mmHg 28%
    17:00 +22°C° 0 mm 5 mps 737 mmHg 31%
    18:00 +21°C° 0 mm 5 mps 737 mmHg 34%
    19:00 +20°C° 0 mm 4 mps 737 mmHg 37%
    20:00 +19°C° 0 mm 5 mps 738 mmHg 40%
    21:00 +19°C° 0 mm 5 mps 738 mmHg 42%
    22:00 +17°C° 0 mm 6 mps 738 mmHg 44%
    23:00 +16°C° 0 mm 5 mps 738 mmHg 46%

    7 June, Sunday

    Time Temperature Precipitation Wind Pressure Humidity
    00:00 +15°C° 0 mm 5 mps 738 mmHg 49%
    01:00 +15°C° 0 mm 5 mps 738 mmHg 51%
    02:00 +14°C° 0 mm 4 mps 738 mmHg 53%
    03:00 +14°C° 0 mm 4 mps 738 mmHg 55%
    04:00 +13°C° 0 mm 4 mps 738 mmHg 57%
    05:00 +15°C° 0 mm 5 mps 738 mmHg 52%
    06:00 +17°C° 0 mm 5 mps 738 mmHg 47%
    07:00 +19°C° 0 mm 6 mps 738 mmHg 42%
    08:00 +21°C° 0 mm 6 mps 738 mmHg 39%
    09:00 +22°C° 0 mm 6 mps 738 mmHg 35%
    10:00 +23°C° 0 mm 6 mps 738 mmHg 32%
    11:00 +24°C° 0 mm 6 mps 738 mmHg 30%
    12:00 +26°C° 0 mm 5 mps 738 mmHg 27%
    13:00 +26°C° 0 mm 5 mps 738 mmHg 25%
    14:00 +26°C° 0 mm 5 mps 738 mmHg 25%
    15:00 +27°C° 0 mm 5 mps 737 mmHg 24%
    16:00 +27°C° 0 mm 5 mps 737 mmHg 23%
    17:00 +26°C° 0 mm 4 mps 737 mmHg 28%
    18:00 +25°C° 0 mm 4 mps 737 mmHg 32%
    19:00 +22°C° 0 mm 4 mps 737 mmHg 37%
    20:00 +21°C° 0 mm 4 mps 737 mmHg 39%
    21:00 +20°C° 0 mm 4 mps 737 mmHg 42%
    22:00 +19°C° 0 mm 4 mps 737 mmHg 44%
    23:00 +19°C° 0 mm 4 mps 737 mmHg 47%

    8 June, Monday

    Time Temperature Precipitation Wind Pressure Humidity
    00:00 +18°C° 0 mm 4 mps 737 mmHg 49%
    01:00 +17°C° 0 mm 4 mps 737 mmHg 52%
    02:00 +17°C° 0 mm 4 mps 737 mmHg 54%
    03:00 +17°C° 0 mm 3 mps 737 mmHg 55%
    04:00 +16°C° 0 mm 3 mps 737 mmHg 57%
    05:00 +18°C° 0 mm 4 mps 737 mmHg 52%
    06:00 +20°C° 0 mm 5 mps 737 mmHg 47%
    07:00 +22°C° 0 mm 5 mps 737 mmHg 41%
    08:00 +23°C° 0 mm 6 mps 737 mmHg 39%
    09:00 +24°C° 0 mm 6 mps 737 mmHg 36%
    10:00 +26°C° 0 mm 7 mps 737 mmHg 34%
    11:00 +26°C° 0 mm 7 mps 737 mmHg 32%
    12:00 +27°C° 0 mm 7 mps 737 mmHg 30%
    13:00 +28°C° 0 mm 6 mps 737 mmHg 28%
    14:00 +27°C° 0 mm 6 mps 736 mmHg 28%
    15:00 +27°C° 0 mm 6 mps 736 mmHg 28%
    16:00 +27°C° 0 mm 6 mps 736 mmHg 28%
    17:00 +26°C° 0 mm 5 mps 736 mmHg 31%
    18:00 +26°C° 0 mm 4 mps 736 mmHg 33%
    19:00 +25°C° 0 mm 3 mps 735 mmHg 36%
    20:00 +24°C° 0 mm 3 mps 736 mmHg 37%
    21:00 +22°C° 0 mm 4 mps 736 mmHg 38%
    22:00 +21°C° 0 mm 4 mps 736 mmHg 39%
    23:00 +21°C° 0 mm 4 mps 736 mmHg 43%

    9 June, Tuesday

    Time Temperature Precipitation Wind Pressure Humidity
    00:00 +20°C° 0 mm 4 mps 736 mmHg 47%
    01:00 +19°C° 0 mm 5 mps 736 mmHg 51%
    02:00 +18°C° 0 mm 4 mps 736 mmHg 53%
    03:00 +18°C° 0 mm 4 mps 736 mmHg 56%
    04:00 +17°C° 0 mm 4 mps 736 mmHg 58%
    05:00 +19°C° 0 mm 4 mps 736 mmHg 54%
    06:00 +20°C° 0 mm 5 mps 736 mmHg 50%
    07:00 +22°C° 0 mm 5 mps 736 mmHg 47%
    08:00 +23°C° 0 mm 5 mps 736 mmHg 42%
    09:00 +26°C° 0 mm 5 mps 736 mmHg 37%
    10:00 +27°C° 0 mm 6 mps 736 mmHg 32%
    11:00 +27°C° 0 mm 6 mps 736 mmHg 30%
    12:00 +28°C° 0 mm 6 mps 736 mmHg 27%
    13:00 +29°C° 0 mm 6 mps 736 mmHg 25%
    14:00 +28°C° 0 mm 6 mps 736 mmHg 29%
    15:00 +28°C° 0 mm 7 mps 736 mmHg 32%
    16:00 +27°C° 0 mm 7 mps 735 mmHg 36%
    17:00 +26°C° 0 mm 7 mps 735 mmHg 39%
    18:00 +24°C° 0 mm 6 mps 735 mmHg 42%
    19:00 +23°C° 0 mm 5 mps 735 mmHg 44%
    20:00 +22°C° 0 mm 5 mps 735 mmHg 47%
    21:00 +21°C° 0 mm 4 mps 735 mmHg 50%
    22:00 +21°C° 0 mm 4 mps 735 mmHg 53%
    23:00 +20°C° 0 mm 4 mps 735 mmHg 57%
    Show more